CW2840 Weather Reports


time (UTC)temp
C
wind
direction
speed
KPH
gust
KPH
rain 1hr
cm
rain 24hr
cm
rain mn
cm
humidity
%
barometer
mb
20260902055803 25 262 8.0 20.9 0.00 0.81 0.00 85 1013.2
20260902054302 25 243 8.0 25.7 0.00 0.81 0.00 85 1013.0
20260902052804 25 259 6.4 14.5 0.00 0.81 0.00 86 1012.9
20260902051302 25 200 3.2 20.9 0.00 0.81 0.00 86 1013.2
20260902045804 25 266 6.4 17.7 0.00 0.81 0.81 87 1013.1
20260902045004 25 272 6.4 17.7 0.00 0.81 0.81 87 1013.3
20260902042758 25 252 3.2 17.7 0.00 0.81 0.81 87 1013.2
20260902041256 25 257 4.8 14.5 0.00 0.81 0.81 88 1013.1
20260902035754 25 250 4.8 14.5 0.00 0.81 0.81 88 1013.2
20260902034252 25 306 1.6 4.8 0.00 0.81 0.81 88 1013.3
20260902032752 25 306 3.2 4.8 0.00 0.81 0.81 88 1013.3
20260902031252 25 307 1.6 3.2 0.00 0.81 0.81 89 1013.4
20260902030448 25 307 0.0 3.2 0.00 0.81 0.81 88 1013.3
20260902024248 25 307 0.0 4.8 0.00 0.81 0.81 88 1013.1
20260902023446 25 307 1.6 4.8 0.00 0.81 0.81 88 1012.9
20260902021245 25 305 0.0 3.2 0.00 0.81 0.81 88 1012.7
20260902015745 25 305 0.0 4.8 0.00 0.81 0.81 88 1012.5
20260902014241 25 305 1.6 4.8 0.00 0.81 0.81 88 1012.6
20260902012741 25 305 1.6 4.8 0.00 0.81 0.81 88 1012.4
20260902011237 25 305 0.0 4.8 0.00 0.81 0.81 89 1012.4
20260902005741 25 305 0.0 3.2 0.00 0.81 0.81 89 1012.4
20260902004235 25 305 0.0 3.2 0.00 0.81 0.81 89 1012.5
20260902002736 25 305 0.0 4.8 0.00 0.81 0.81 89 1012.6
20260902001234 25 305 0.0 4.8 0.03 0.81 0.81 89 1012.8
20260901235736 25 305 1.6 3.2 0.15 0.69 0.81 89 1012.7
20260901234234 25 305 0.0 3.2 0.23 0.69 0.81 89 1012.6
20260901233444 25 305 0.0 4.8 0.36 0.69 0.81 88 1012.6
20260901231233 25 358 3.2 4.8 0.41 0.69 0.76 88 1012.9
20260901230429 25 358 0.0 8.0 0.56 0.18 0.66 87 1013.2
20260901224232 25 358 3.2 11.3 0.58 0.18 0.58 87 1013.6
20260901222734 25 351 4.8 11.3 0.46 0.18 0.46 86 1013.9
20260901221231 25 340 4.8 25.7 0.38 0.18 0.38 84 1014.0
20260901215733 27 1 14.5 32.2 0.10 0.00 0.08 78 1014.1
20260901214231 30 51 9.7 22.5 0.00 0.00 0.00 67 1013.8
20260901212730 32 31 4.8 11.3 0.00 0.00 0.00 55 1013.3
20260901211922 32 80 4.8 14.5 0.00 0.00 0.00 53 1013.1
20260901205732 32 0 3.2 20.9 0.00 0.00 0.00 52 1013.1
20260901204231 32 344 8.0 17.7 0.00 0.00 0.00 55 1013.2
20260901203434 32 3 6.4 14.5 0.00 0.00 0.00 58 1013.3
20260901201229 31 326 6.4 14.5 0.00 0.00 0.00 60 1013.6
20260901195731 31 31 4.8 14.5 0.00 0.00 0.00 61 1013.9
20260901194228 31 338 3.2 8.0 0.00 0.00 0.00 62 1014.5
20260901192730 31 8 3.2 11.3 0.00 0.00 0.00 62 1014.6
20260901191226 31 353 3.2 8.0 0.00 0.00 0.00 63 1014.6
20260901185725 31 347 3.2 11.3 0.00 0.00 0.00 62 1014.2
20260901184221 31 358 1.6 11.3 0.00 0.00 0.00 63 1014.4
20260901182723 31 237 4.8 14.5 0.00 0.00 0.00 64 1014.7
20260901181220 31 348 3.2 11.3 0.00 0.00 0.00 64 1014.8
20260901175721 30 337 3.2 8.0 0.00 0.00 0.00 65 1015.0
20260901174219 30 4 4.8 8.0 0.00 0.00 0.00 65 1015.5
20260901172721 30 317 1.6 8.0 0.00 0.00 0.00 65 1015.7
20260901171915 30 313 4.8 11.3 0.00 0.00 0.00 66 1016.0
20260901165721 30 345 3.2 8.0 0.00 0.00 0.00 65 1016.0
20260901164218 30 0 4.8 17.7 0.00 0.00 0.00 64 1016.1
20260901162719 30 274 4.8 17.7 0.00 0.00 0.00 65 1016.2
20260901161218 30 353 8.0 22.5 0.00 0.00 0.00 65 1016.1
20260901160421 30 320 4.8 17.7 0.00 0.00 0.00 66 1016.0
20260901154217 30 347 8.0 17.7 0.00 0.00 0.00 67 1016.0
20260901152718 29 357 3.2 14.5 0.00 0.00 0.00 70 1016.0
20260901151216 29 0 1.6 14.5 0.00 0.00 0.00 70 1016.2
20260901145717 29 347 6.4 14.5 0.00 0.00 0.00 72 1016.2
20260901144215 29 0 3.2 11.3 0.00 0.00 0.00 72 1016.2
20260901142716 28 358 6.4 17.7 0.00 0.00 0.00 74 1016.1
20260901141215 27 3 6.4 14.5 0.00 0.00 0.00 79 1016.3
20260901135716 27 338 0.0 11.3 0.00 0.00 0.00 80 1016.3
20260901134214 26 14 4.8 8.0 0.00 0.00 0.00 81 1016.5
20260901132717 26 0 6.4 11.3 0.00 0.00 0.00 83 1016.2
20260901131212 26 6 1.6 11.3 0.00 0.00 0.00 84 1016.0
20260901125714 26 47 4.8 8.0 0.00 0.00 0.00 85 1015.9
20260901124209 26 111 4.8 8.0 0.00 0.00 0.00 85 1015.7
20260901122710 26 111 3.2 8.0 0.00 0.00 0.00 85 1015.7
20260901121204 26 121 1.6 8.0 0.00 0.00 0.00 84 1015.3
20260901115704 26 123 3.2 4.8 0.00 0.00 0.00 84 1015.3
20260901114205 26 123 3.2 8.0 0.00 0.00 0.00 84 1015.3
20260901112704 26 127 1.6 3.2 0.00 0.00 0.00 84 1015.3
20260901111204 26 127 1.6 3.2 0.00 0.00 0.00 84 1015.3
20260901105703 26 127 0.0 4.8 0.00 0.00 0.00 85 1015.2
20260901104203 26 127 0.0 3.2 0.00 0.00 0.00 85 1015.1
20260901102703 26 127 0.0 0.0 0.00 0.00 0.00 85 1014.9
20260901101202 26 127 0.0 3.2 0.00 0.00 0.00 85 1015.0
20260901095703 26 127 0.0 0.0 0.00 0.00 0.00 84 1015.0
20260901094202 26 127 0.0 3.2 0.00 0.00 0.00 84 1015.1
20260901092704 26 127 0.0 0.0 0.00 0.00 0.00 84 1015.0
20260901091202 26 127 0.0 0.0 0.00 0.00 0.00 84 1015.1
20260901085704 26 127 0.0 3.2 0.00 0.00 0.00 83 1015.1
20260901085559 26 127 0.0 3.2 0.00 0.00 0.00 83 1015.2
20260901082704 26 127 1.6 3.2 0.00 0.00 0.00 83 1015.1
20260901081202 26 127 0.0 3.2 0.00 0.00 0.00 83 1015.1
20260901075704 26 127 0.0 3.2 0.00 0.00 0.00 83 1015.3
20260901074202 26 127 3.2 3.2 0.00 0.00 0.00 83 1015.4
20260901072705 27 127 0.0 3.2 0.00 0.00 0.00 82 1015.3
20260901071202 27 127 0.0 3.2 0.00 0.00 0.00 82 1015.3
20260901065705 27 127 0.0 3.2 0.00 0.00 0.00 81 1015.3
20260901064202 27 127 0.0 3.2 0.00 0.00 0.00 80 1015.5
20260901062703 27 127 0.0 3.2 0.00 0.00 0.00 79 1015.5
20260901061203 27 127 0.0 3.2 0.00 0.00 0.00 79 1015.5